Location: Boissi�res
(45.2500°N, 2.3667°E)
Time: 00:57:56
(UTC+00:00)

Meteor 1-11 Rocket - Pass Details

Date: 03 March 2021
Orbit: 831 x 916 km, 81.2° (Epoch: 18 April)

Event Time Altitude Azimuth Distance (km) Brightness Sun altitude
Rises 19:22:52 0° 176° (S) 3,468 6.7 -18.7°
Reaches altitude 10° 19:25:21 10° 172° (S) 2,521 6.0 -19.2°
Maximum altitude 19:30:56 56° 95° (E) 1,017 3.7 -20.1°
Drops below altitude 10° 19:36:25 10° 19° (NNE) 2,484 6.1 -21.1°
Sets 19:38:52 0° 15° (NNE) 3,413 6.8 -21.5°
